Year,Month,Day,Hour,Minute,Value (Times are PST for temperature in C)
2011,05,16,00,00,10.10
2011,05,16,00,05,10.00
2011,05,16,00,06,10.00
2011,05,16,00,07,10.00
2011,05,16,00,08,9.90
2011,05,16,00,09,9.90
2011,05,16,00,10,9.90
2011,05,16,00,11,9.90
2011,05,16,00,12,9.90
2011,05,16,00,13,9.90
2011,05,16,00,14,9.90
2011,05,16,00,15,10.00
2011,05,16,00,16,10.00
2011,05,16,00,17,10.00
2011,05,16,00,18,10.00
2011,05,16,00,19,10.00
2011,05,16,00,20,10.00
2011,05,16,00,21,10.00
2011,05,16,00,22,10.00
2011,05,16,00,23,10.00
2011,05,16,00,24,10.10
2011,05,16,00,25,10.10
2011,05,16,00,26,10.10
2011,05,16,00,27,10.10
2011,05,16,00,28,10.10
2011,05,16,00,29,10.10
2011,05,16,00,30,10.00
2011,05,16,00,31,10.00
2011,05,16,00,32,10.00
2011,05,16,00,33,10.10
2011,05,16,00,34,10.10
2011,05,16,00,35,10.10
2011,05,16,00,36,10.10
2011,05,16,00,37,10.10
2011,05,16,00,38,10.10
2011,05,16,00,39,10.00
2011,05,16,00,40,10.00
2011,05,16,00,41,10.00
2011,05,16,00,42,10.00
2011,05,16,00,43,10.00
2011,05,16,00,44,10.00
2011,05,16,00,45,10.00
2011,05,16,00,46,9.90
2011,05,16,00,47,9.90
2011,05,16,00,48,9.90
2011,05,16,00,49,9.80
2011,05,16,00,50,9.80
2011,05,16,00,51,9.80
2011,05,16,00,52,9.80
2011,05,16,00,53,9.80
2011,05,16,00,54,9.90
2011,05,16,00,55,9.90
2011,05,16,00,56,9.90
2011,05,16,00,57,9.90
2011,05,16,00,58,9.90
2011,05,16,00,59,9.90
2011,05,16,01,00,9.90
2011,05,16,01,01,9.90
2011,05,16,01,02,9.90
2011,05,16,01,03,10.00
2011,05,16,01,04,10.00
2011,05,16,01,05,10.10
2011,05,16,01,06,10.10
2011,05,16,01,07,10.10
2011,05,16,01,08,10.10
2011,05,16,01,09,10.10
2011,05,16,01,10,10.10
2011,05,16,01,11,10.10
2011,05,16,01,12,10.10
2011,05,16,01,13,10.00
2011,05,16,01,14,10.00
2011,05,16,01,15,9.90
2011,05,16,01,16,9.90
2011,05,16,01,17,9.90
2011,05,16,01,18,9.90
2011,05,16,01,19,9.90
2011,05,16,01,20,9.80
2011,05,16,01,21,9.80
2011,05,16,01,22,9.80
2011,05,16,01,23,9.80
2011,05,16,01,24,9.80
2011,05,16,01,25,9.80
2011,05,16,01,26,9.80
2011,05,16,01,27,9.80
2011,05,16,01,28,9.80
2011,05,16,01,29,9.80
2011,05,16,01,30,9.80
2011,05,16,01,31,9.80
2011,05,16,01,32,9.70
2011,05,16,01,33,9.70
2011,05,16,01,34,9.70
2011,05,16,01,35,9.70
2011,05,16,01,36,9.60
2011,05,16,01,37,9.60
2011,05,16,01,38,9.60
2011,05,16,01,39,9.60
2011,05,16,01,40,9.60
2011,05,16,01,41,9.60
2011,05,16,01,42,9.60
2011,05,16,01,43,9.60
2011,05,16,01,44,9.60
2011,05,16,01,45,9.60
2011,05,16,01,46,9.60
2011,05,16,01,47,9.60
2011,05,16,01,48,9.60
2011,05,16,01,49,9.60
2011,05,16,01,50,9.60
2011,05,16,01,51,9.60
2011,05,16,01,52,9.60
2011,05,16,01,53,9.60
2011,05,16,01,54,9.70
2011,05,16,01,55,9.60
2011,05,16,01,56,9.60
2011,05,16,01,57,9.60
2011,05,16,01,58,9.60
2011,05,16,01,59,9.60
2011,05,16,02,00,9.60
2011,05,16,02,01,9.70
2011,05,16,02,02,9.70
2011,05,16,02,03,9.70
2011,05,16,02,04,9.70
2011,05,16,02,05,9.70
2011,05,16,02,06,9.70
2011,05,16,02,07,9.70
2011,05,16,02,08,9.70
2011,05,16,02,09,9.70
2011,05,16,02,10,9.70
2011,05,16,02,11,9.70
2011,05,16,02,12,9.70
2011,05,16,02,13,9.70
2011,05,16,02,14,9.70
2011,05,16,02,15,9.70
2011,05,16,02,16,9.70
2011,05,16,02,17,9.70
2011,05,16,02,18,9.70
2011,05,16,02,19,9.70
2011,05,16,02,20,9.70
2011,05,16,02,21,9.70
2011,05,16,02,22,9.70
2011,05,16,02,23,9.70
2011,05,16,02,24,9.70
2011,05,16,02,25,9.70
2011,05,16,02,26,9.70
2011,05,16,02,27,9.70
2011,05,16,02,28,9.70
2011,05,16,02,29,9.70
2011,05,16,02,30,9.70
2011,05,16,02,31,9.70
2011,05,16,02,32,9.70
2011,05,16,02,33,9.70
2011,05,16,02,34,9.70
2011,05,16,02,35,9.70
2011,05,16,02,36,9.70
2011,05,16,02,37,9.70
2011,05,16,02,38,9.70
2011,05,16,02,39,9.70
2011,05,16,02,40,9.70
2011,05,16,02,41,9.70
2011,05,16,02,42,9.80
2011,05,16,02,43,9.80
2011,05,16,02,44,9.80
2011,05,16,02,45,9.80
2011,05,16,02,46,9.80
2011,05,16,02,47,9.80
2011,05,16,02,48,9.80
2011,05,16,02,49,9.80
2011,05,16,02,50,9.80
2011,05,16,02,51,9.80
2011,05,16,02,52,9.80
2011,05,16,02,53,9.80
2011,05,16,02,54,9.90
2011,05,16,02,55,9.90
2011,05,16,02,56,9.90
2011,05,16,02,57,9.90
2011,05,16,02,58,9.90
2011,05,16,02,59,9.90
2011,05,16,03,00,9.90
2011,05,16,03,01,9.90
2011,05,16,03,02,9.90
2011,05,16,03,03,9.90
2011,05,16,03,04,9.90
2011,05,16,03,05,9.90
2011,05,16,03,06,9.80
2011,05,16,03,07,9.90
2011,05,16,03,08,9.90
2011,05,16,03,09,9.90
2011,05,16,03,10,9.90
2011,05,16,03,11,9.90
2011,05,16,03,12,9.90
2011,05,16,03,13,9.90
2011,05,16,03,14,9.90
2011,05,16,03,15,10.00
2011,05,16,03,16,10.00
2011,05,16,03,17,10.00
2011,05,16,03,18,10.00
2011,05,16,03,19,10.00
2011,05,16,03,20,9.90
2011,05,16,03,21,9.90
2011,05,16,03,22,9.90
2011,05,16,03,23,9.80
2011,05,16,03,24,9.80
2011,05,16,03,25,9.90
2011,05,16,03,26,9.90
2011,05,16,03,27,9.90
2011,05,16,03,28,9.80
2011,05,16,03,29,9.80
2011,05,16,03,30,9.70
2011,05,16,03,31,9.70
2011,05,16,03,32,9.70
2011,05,16,03,33,9.70
2011,05,16,03,34,9.70
2011,05,16,03,35,9.70
2011,05,16,03,36,9.70
2011,05,16,03,37,9.70
2011,05,16,03,38,9.70
2011,05,16,03,39,9.70
2011,05,16,03,40,9.80
2011,05,16,03,41,9.80
2011,05,16,03,42,9.90
2011,05,16,03,43,9.90
2011,05,16,03,44,10.00
2011,05,16,03,45,10.00
2011,05,16,03,46,9.90
2011,05,16,03,47,10.00
2011,05,16,03,48,10.00
2011,05,16,03,49,9.90
2011,05,16,03,50,9.90
2011,05,16,03,51,9.90
2011,05,16,03,52,9.90
2011,05,16,03,53,9.90
2011,05,16,03,54,9.90
2011,05,16,03,55,9.90
2011,05,16,03,56,9.90
2011,05,16,03,57,9.90
2011,05,16,03,58,9.90
2011,05,16,03,59,9.90
2011,05,16,04,00,9.80
2011,05,16,04,01,9.90
2011,05,16,04,02,9.90
2011,05,16,04,03,9.80
2011,05,16,04,04,9.80
2011,05,16,04,05,9.80
2011,05,16,04,06,9.80
2011,05,16,04,07,9.80
2011,05,16,04,08,9.80
2011,05,16,04,09,9.80
2011,05,16,04,10,9.70
2011,05,16,04,11,9.70
2011,05,16,04,12,9.70
2011,05,16,04,13,9.70
2011,05,16,04,14,9.70
2011,05,16,04,15,9.80
2011,05,16,04,16,9.80
2011,05,16,04,17,9.80
2011,05,16,04,18,9.90
2011,05,16,04,19,9.90
2011,05,16,04,20,9.90
2011,05,16,04,21,9.90
2011,05,16,04,22,9.90
2011,05,16,04,23,10.00
2011,05,16,04,24,10.00
2011,05,16,04,25,10.00
2011,05,16,04,26,10.00
2011,05,16,04,27,10.00
2011,05,16,04,28,10.00
2011,05,16,04,29,10.00
2011,05,16,04,30,10.00
2011,05,16,04,31,9.90
2011,05,16,04,32,9.90
2011,05,16,04,33,10.00
2011,05,16,04,34,9.90
2011,05,16,04,35,10.00
2011,05,16,04,36,10.00
2011,05,16,04,37,9.90
2011,05,16,04,38,9.90
2011,05,16,04,39,9.90
2011,05,16,04,40,9.90
2011,05,16,04,41,9.90
2011,05,16,04,42,9.90
2011,05,16,04,43,9.90
2011,05,16,04,44,9.90
2011,05,16,04,45,9.90
2011,05,16,04,46,9.90
2011,05,16,04,47,10.00
2011,05,16,04,48,10.00
2011,05,16,04,49,10.00
2011,05,16,04,50,10.00
2011,05,16,04,51,10.00
2011,05,16,04,52,9.90
2011,05,16,04,53,10.00
2011,05,16,04,54,9.90
2011,05,16,04,55,9.90
2011,05,16,04,56,9.90
2011,05,16,04,57,9.90
2011,05,16,04,58,9.90
2011,05,16,04,59,9.90
2011,05,16,05,00,9.90
2011,05,16,05,01,9.90
2011,05,16,05,02,9.90
2011,05,16,05,03,9.90
2011,05,16,05,04,9.90
2011,05,16,05,05,9.90
2011,05,16,05,06,9.90
2011,05,16,05,07,9.90
2011,05,16,05,08,9.90
2011,05,16,05,09,9.90
2011,05,16,05,10,9.90
2011,05,16,05,11,9.90
2011,05,16,05,12,9.90
2011,05,16,05,13,9.80
2011,05,16,05,14,9.80
2011,05,16,05,15,9.80
2011,05,16,05,16,9.80
2011,05,16,05,17,9.80
2011,05,16,05,18,9.80
2011,05,16,05,19,9.80
2011,05,16,05,20,9.80
2011,05,16,05,21,9.70
2011,05,16,05,22,9.70
2011,05,16,05,23,9.70
2011,05,16,05,24,9.70
2011,05,16,05,25,9.70
2011,05,16,05,26,9.70
2011,05,16,05,27,9.70
2011,05,16,05,28,9.70
2011,05,16,05,29,9.70
2011,05,16,05,30,9.70
2011,05,16,05,31,9.70
2011,05,16,05,32,9.70
2011,05,16,05,33,9.70
2011,05,16,05,34,9.70
2011,05,16,05,35,9.70
2011,05,16,05,36,9.70
2011,05,16,05,37,9.70
2011,05,16,05,38,9.70
2011,05,16,05,39,9.70
2011,05,16,05,40,9.70
2011,05,16,05,41,9.70
2011,05,16,05,42,9.70
2011,05,16,05,43,9.70
2011,05,16,05,44,9.70
2011,05,16,05,45,9.70
2011,05,16,05,46,9.70
2011,05,16,05,47,9.70
2011,05,16,05,48,9.70
2011,05,16,05,49,9.70
2011,05,16,05,50,9.70
2011,05,16,05,51,9.70
2011,05,16,05,52,9.70
2011,05,16,05,53,9.70
2011,05,16,05,54,9.70
2011,05,16,05,55,9.70
2011,05,16,05,56,9.70
2011,05,16,05,57,9.70
2011,05,16,05,58,9.70
2011,05,16,05,59,9.60
2011,05,16,06,00,9.70
2011,05,16,06,01,9.60
2011,05,16,06,02,9.60
2011,05,16,06,03,9.60
2011,05,16,06,04,9.60
2011,05,16,06,05,9.70
2011,05,16,06,06,9.70
2011,05,16,06,07,9.70
2011,05,16,06,08,9.70
2011,05,16,06,09,9.70
2011,05,16,06,10,9.70
2011,05,16,06,11,9.70
2011,05,16,06,12,9.70
2011,05,16,06,13,9.70
2011,05,16,06,14,9.70
2011,05,16,06,15,9.70
2011,05,16,06,16,9.70
2011,05,16,06,17,9.70
2011,05,16,06,18,9.70
2011,05,16,06,19,9.70
2011,05,16,06,20,9.70
2011,05,16,06,21,9.70
2011,05,16,06,22,9.70
2011,05,16,06,23,9.70
2011,05,16,06,24,9.70
2011,05,16,06,25,9.70
2011,05,16,06,26,9.70
2011,05,16,06,27,9.70
2011,05,16,06,28,9.70
2011,05,16,06,29,9.70
2011,05,16,06,30,9.70
2011,05,16,06,31,9.70
2011,05,16,06,32,9.70
2011,05,16,06,33,9.70
2011,05,16,06,34,9.70
2011,05,16,06,35,9.70
2011,05,16,06,36,9.70
2011,05,16,06,37,9.70
2011,05,16,06,38,9.70
2011,05,16,06,39,9.70
2011,05,16,06,40,9.70
2011,05,16,06,41,9.70
2011,05,16,06,42,9.80
2011,05,16,06,43,9.80
2011,05,16,06,44,9.80
2011,05,16,06,45,9.80
2011,05,16,06,46,9.80
2011,05,16,06,47,9.80
2011,05,16,06,48,9.80
2011,05,16,06,49,9.80
2011,05,16,06,50,9.80
2011,05,16,06,51,9.80
2011,05,16,06,52,9.80
2011,05,16,06,53,9.80
2011,05,16,06,54,9.90
2011,05,16,06,55,9.90
2011,05,16,06,56,9.90
2011,05,16,06,57,9.90
2011,05,16,06,58,9.90
2011,05,16,06,59,9.90
2011,05,16,07,00,9.90
2011,05,16,07,01,10.00
2011,05,16,07,02,10.00
2011,05,16,07,03,10.00
2011,05,16,07,04,10.10
2011,05,16,07,05,10.10
2011,05,16,07,06,10.10
2011,05,16,07,07,10.10
2011,05,16,07,08,10.10
2011,05,16,07,09,10.10
2011,05,16,07,10,10.10
2011,05,16,07,11,10.10
2011,05,16,07,12,10.20
2011,05,16,07,13,10.20
2011,05,16,07,14,10.20
2011,05,16,07,15,10.20
2011,05,16,07,16,10.20
2011,05,16,07,17,10.20
2011,05,16,07,18,10.20
2011,05,16,07,19,10.20
2011,05,16,07,20,10.30
2011,05,16,07,21,10.30
2011,05,16,07,22,10.30
2011,05,16,07,23,10.30
2011,05,16,07,24,10.30
2011,05,16,07,25,10.30
2011,05,16,07,26,10.30
2011,05,16,07,27,10.30
2011,05,16,07,28,10.40
2011,05,16,07,29,10.40
2011,05,16,07,30,10.40
2011,05,16,07,31,10.40
2011,05,16,07,32,10.40
2011,05,16,07,33,10.40
2011,05,16,07,34,10.40
2011,05,16,07,35,10.40
2011,05,16,07,36,10.40
2011,05,16,07,37,10.50
2011,05,16,07,38,10.40
2011,05,16,07,39,10.40
2011,05,16,07,40,10.40
2011,05,16,07,41,10.40
2011,05,16,07,42,10.40
2011,05,16,07,43,10.50
2011,05,16,07,44,10.50
2011,05,16,07,45,10.50
2011,05,16,07,46,10.50
2011,05,16,07,47,10.50
2011,05,16,07,48,10.50
2011,05,16,07,49,10.60
2011,05,16,07,50,10.60
2011,05,16,07,51,10.60
2011,05,16,07,52,10.60
2011,05,16,07,53,10.60
2011,05,16,07,54,10.60
2011,05,16,07,55,10.60
2011,05,16,07,56,10.60
2011,05,16,07,57,10.60
2011,05,16,07,58,10.60
2011,05,16,07,59,10.60
2011,05,16,08,00,10.60
2011,05,16,08,01,10.70
2011,05,16,08,02,10.70
2011,05,16,08,03,10.70
2011,05,16,08,04,10.70
2011,05,16,08,05,10.70
2011,05,16,08,06,10.80
2011,05,16,08,07,10.80
2011,05,16,08,08,10.80
2011,05,16,08,09,10.90
2011,05,16,08,10,10.90
2011,05,16,08,11,10.90
2011,05,16,08,12,10.90
2011,05,16,08,13,10.90
2011,05,16,08,14,11.00
2011,05,16,08,15,11.00
2011,05,16,08,16,11.00
2011,05,16,08,17,11.00
2011,05,16,08,18,11.00
2011,05,16,08,19,11.10
2011,05,16,08,20,11.10
2011,05,16,08,21,11.10
2011,05,16,08,22,11.10
2011,05,16,08,23,11.10
2011,05,16,08,24,11.10
2011,05,16,08,25,11.20
2011,05,16,08,26,11.20
2011,05,16,08,27,11.20
2011,05,16,08,28,11.20
2011,05,16,08,29,11.20
2011,05,16,08,30,11.20
2011,05,16,08,31,11.20
2011,05,16,08,32,11.20
2011,05,16,08,33,11.20
2011,05,16,08,34,11.20
2011,05,16,08,35,11.20
2011,05,16,08,36,11.20
2011,05,16,08,37,11.10
2011,05,16,08,38,11.10
2011,05,16,08,39,11.10
2011,05,16,08,40,11.00
2011,05,16,08,41,11.00
2011,05,16,08,42,10.90
2011,05,16,08,43,10.90
2011,05,16,08,44,10.90
2011,05,16,08,45,10.90
2011,05,16,08,46,10.90
2011,05,16,08,47,10.90
2011,05,16,08,48,10.90
2011,05,16,08,49,10.90
2011,05,16,08,50,10.90
2011,05,16,08,51,10.90
2011,05,16,08,52,10.90
2011,05,16,08,53,10.90
2011,05,16,08,54,10.90
2011,05,16,08,55,11.00
2011,05,16,08,56,11.00
2011,05,16,08,57,11.00
2011,05,16,08,58,11.10
2011,05,16,08,59,11.10
2011,05,16,09,00,11.10
2011,05,16,09,01,11.10
2011,05,16,09,02,11.10
2011,05,16,09,03,11.20
2011,05,16,09,04,11.20
2011,05,16,09,05,11.20
2011,05,16,09,06,11.20
2011,05,16,09,07,11.10
2011,05,16,09,08,11.10
2011,05,16,09,09,11.00
2011,05,16,09,10,11.00
2011,05,16,09,11,10.90
2011,05,16,09,12,10.90
2011,05,16,09,13,10.90
2011,05,16,09,14,10.90
2011,05,16,09,15,10.90
2011,05,16,09,16,10.90
2011,05,16,09,17,10.90
2011,05,16,09,18,10.90
2011,05,16,09,19,10.90
2011,05,16,09,20,10.90
2011,05,16,09,21,10.90
2011,05,16,09,22,10.90
2011,05,16,09,23,11.00
2011,05,16,09,24,11.00
2011,05,16,09,25,11.00
2011,05,16,09,26,11.00
2011,05,16,09,27,11.10
2011,05,16,09,28,11.10
2011,05,16,09,29,11.10
2011,05,16,09,30,11.10
2011,05,16,09,31,11.10
2011,05,16,09,32,11.10
2011,05,16,09,33,11.20
2011,05,16,09,34,11.20
2011,05,16,09,35,11.20
2011,05,16,09,36,11.30
2011,05,16,09,37,11.30
2011,05,16,09,38,11.30
2011,05,16,09,39,11.40
2011,05,16,09,40,11.40
2011,05,16,09,41,11.40
2011,05,16,09,42,11.40
2011,05,16,09,43,11.40
2011,05,16,09,44,11.50
2011,05,16,09,45,11.50
2011,05,16,09,46,11.50
2011,05,16,09,47,11.60
2011,05,16,09,48,11.60
2011,05,16,09,49,11.60
2011,05,16,09,50,11.60
2011,05,16,09,51,11.60
2011,05,16,09,52,11.60
2011,05,16,09,53,11.60
2011,05,16,09,54,11.60
2011,05,16,09,55,11.60
2011,05,16,09,56,11.60
2011,05,16,09,57,11.60
2011,05,16,09,58,11.60
2011,05,16,09,59,11.60
2011,05,16,10,00,11.60
2011,05,16,10,01,11.70
2011,05,16,10,02,11.70
2011,05,16,10,03,11.70
2011,05,16,10,04,11.70
2011,05,16,10,05,11.70
2011,05,16,10,06,11.70
2011,05,16,10,07,11.70
2011,05,16,10,08,11.70
2011,05,16,10,09,11.70
2011,05,16,10,10,11.80
2011,05,16,10,11,11.80
2011,05,16,10,12,11.80
2011,05,16,10,13,11.90
2011,05,16,10,14,11.90
2011,05,16,10,15,12.00
2011,05,16,10,16,12.00
2011,05,16,10,17,12.00
2011,05,16,10,18,12.00
2011,05,16,10,19,12.00
2011,05,16,10,20,12.00
2011,05,16,10,21,11.90
2011,05,16,10,22,11.90
2011,05,16,10,23,11.90
2011,05,16,10,24,11.90
2011,05,16,10,25,11.90
2011,05,16,10,26,11.90
2011,05,16,10,27,12.00
2011,05,16,10,28,12.00
2011,05,16,10,29,12.00
2011,05,16,10,30,12.00
2011,05,16,10,31,12.00
2011,05,16,10,32,12.00
2011,05,16,10,33,12.00
2011,05,16,10,34,12.00
2011,05,16,10,35,12.00
2011,05,16,10,36,12.00
2011,05,16,10,37,12.00
2011,05,16,10,38,12.00
2011,05,16,10,39,12.00
2011,05,16,10,40,12.10
2011,05,16,10,41,12.10
2011,05,16,10,42,12.10
2011,05,16,10,43,12.20
2011,05,16,10,44,12.20
2011,05,16,10,45,12.20
2011,05,16,10,46,12.30
2011,05,16,10,47,12.30
2011,05,16,10,48,12.30
2011,05,16,10,49,12.30
2011,05,16,10,50,12.30
2011,05,16,10,51,12.30
2011,05,16,10,52,12.30
2011,05,16,10,53,12.40
2011,05,16,10,54,12.40
2011,05,16,10,55,12.40
2011,05,16,10,56,12.50
2011,05,16,10,57,12.60
2011,05,16,10,58,12.70
2011,05,16,10,59,12.80
2011,05,16,11,00,12.90
2011,05,16,11,01,13.00
2011,05,16,11,02,13.00
2011,05,16,11,03,12.90
2011,05,16,11,04,12.90
2011,05,16,11,05,12.80
2011,05,16,11,06,12.90
2011,05,16,11,07,12.90
2011,05,16,11,08,12.90
2011,05,16,11,09,12.90
2011,05,16,11,10,13.00
2011,05,16,11,11,13.00
2011,05,16,11,12,13.00
2011,05,16,11,13,13.00
2011,05,16,11,14,13.00
2011,05,16,11,15,12.90
2011,05,16,11,16,12.90
2011,05,16,11,17,12.90
2011,05,16,11,18,12.90
2011,05,16,11,19,13.00
2011,05,16,11,20,13.10
2011,05,16,11,21,13.10
2011,05,16,11,22,13.20
2011,05,16,11,23,13.20
2011,05,16,11,24,13.30
2011,05,16,11,25,13.20
2011,05,16,11,26,13.10
2011,05,16,11,27,13.10
2011,05,16,11,28,13.10
2011,05,16,11,29,13.10
2011,05,16,11,30,13.20
2011,05,16,11,31,13.20
2011,05,16,11,32,13.20
2011,05,16,11,33,13.30
2011,05,16,11,34,13.30
2011,05,16,11,35,13.30
2011,05,16,11,36,13.30
2011,05,16,11,37,13.30
2011,05,16,11,38,13.30
2011,05,16,11,39,13.20
2011,05,16,11,40,13.20
2011,05,16,11,41,13.10
2011,05,16,11,42,13.10
2011,05,16,11,43,13.10
2011,05,16,11,44,13.20
2011,05,16,11,45,13.20
2011,05,16,11,46,13.20
2011,05,16,11,47,13.20
2011,05,16,11,48,13.20
2011,05,16,11,49,13.20
2011,05,16,11,50,13.20
2011,05,16,11,51,13.20
2011,05,16,11,52,13.20
2011,05,16,11,53,13.20
2011,05,16,11,54,13.20
2011,05,16,11,55,13.20
2011,05,16,11,56,13.10
2011,05,16,11,57,13.20
2011,05,16,11,58,13.20
2011,05,16,11,59,13.30
2011,05,16,12,00,13.40
2011,05,16,12,01,13.50
2011,05,16,12,02,13.60
2011,05,16,12,03,13.70
2011,05,16,12,04,13.70
2011,05,16,12,05,13.70
2011,05,16,12,06,13.70
2011,05,16,12,07,13.60
2011,05,16,12,08,13.60
2011,05,16,12,09,13.70
2011,05,16,12,10,13.70
2011,05,16,12,11,13.70
2011,05,16,12,12,13.80
2011,05,16,12,13,13.80
2011,05,16,12,14,13.80
2011,05,16,12,15,13.80
2011,05,16,12,16,13.70
2011,05,16,12,17,13.70
2011,05,16,12,18,13.60
2011,05,16,12,19,13.50
2011,05,16,12,20,13.50
2011,05,16,12,21,13.40
2011,05,16,12,22,13.40
2011,05,16,12,23,13.40
2011,05,16,12,24,13.40
2011,05,16,12,25,13.50
2011,05,16,12,26,13.60
2011,05,16,12,27,13.60
2011,05,16,12,28,13.70
2011,05,16,12,29,13.80
2011,05,16,12,30,13.80
2011,05,16,12,31,13.80
2011,05,16,12,32,13.80
2011,05,16,12,33,13.80
2011,05,16,12,34,13.80
2011,05,16,12,35,13.70
2011,05,16,12,36,13.60
2011,05,16,12,37,13.60
2011,05,16,12,38,13.60
2011,05,16,12,39,13.60
2011,05,16,12,40,13.70
2011,05,16,12,41,13.70
2011,05,16,12,42,13.70
2011,05,16,12,43,13.70
2011,05,16,12,44,13.70
2011,05,16,12,45,13.70
2011,05,16,12,46,13.70
2011,05,16,12,47,13.60
2011,05,16,12,48,13.60
2011,05,16,12,49,13.60
2011,05,16,12,50,13.60
2011,05,16,12,51,13.60
2011,05,16,12,52,13.60
2011,05,16,12,53,13.50
2011,05,16,12,54,13.50
2011,05,16,12,55,13.40
2011,05,16,12,56,13.40
2011,05,16,12,57,13.40
2011,05,16,12,58,13.40
2011,05,16,12,59,13.30
2011,05,16,13,00,13.20
2011,05,16,13,01,13.10
2011,05,16,13,02,13.10
2011,05,16,13,03,13.10
2011,05,16,13,04,13.10
2011,05,16,13,05,13.10
2011,05,16,13,06,13.10
2011,05,16,13,07,13.10
2011,05,16,13,08,13.10
2011,05,16,13,09,13.00
2011,05,16,13,10,13.00
2011,05,16,13,11,13.00
2011,05,16,13,12,13.10
2011,05,16,13,13,13.10
2011,05,16,13,14,13.20
2011,05,16,13,15,13.40
2011,05,16,13,16,13.50
2011,05,16,13,17,13.60
2011,05,16,13,18,13.70
2011,05,16,13,19,13.80
2011,05,16,13,20,13.80
2011,05,16,13,21,13.90
2011,05,16,13,22,13.90
2011,05,16,13,23,13.90
2011,05,16,13,24,13.90
2011,05,16,13,25,13.90
2011,05,16,13,26,13.80
2011,05,16,13,27,13.70
2011,05,16,13,28,13.60
2011,05,16,13,29,13.50
2011,05,16,13,30,13.40
2011,05,16,13,31,13.30
2011,05,16,13,32,13.30
2011,05,16,13,33,13.30
2011,05,16,13,34,13.20
2011,05,16,13,35,13.20
2011,05,16,13,36,13.20
2011,05,16,13,37,13.20
2011,05,16,13,38,13.20
2011,05,16,13,39,13.20
2011,05,16,13,40,13.40
2011,05,16,13,41,13.40
2011,05,16,13,42,13.40
2011,05,16,13,43,13.40
2011,05,16,13,44,13.30
2011,05,16,13,45,13.40
2011,05,16,13,46,13.50
2011,05,16,13,47,13.60
2011,05,16,13,48,13.60
2011,05,16,13,49,13.60
2011,05,16,13,50,13.60
2011,05,16,13,51,13.60
2011,05,16,13,52,13.50
2011,05,16,13,53,13.40
2011,05,16,13,54,13.30
2011,05,16,13,55,13.10
2011,05,16,13,56,12.90
2011,05,16,13,57,12.80
2011,05,16,13,58,12.80
2011,05,16,13,59,12.80
2011,05,16,14,00,12.80
2011,05,16,14,01,12.80
2011,05,16,14,02,12.80
2011,05,16,14,03,12.80
2011,05,16,14,04,12.90
2011,05,16,14,05,12.90
2011,05,16,14,06,13.00
2011,05,16,14,07,13.20
2011,05,16,14,08,13.20
2011,05,16,14,09,13.30
2011,05,16,14,10,13.30
2011,05,16,14,11,13.30
2011,05,16,14,12,13.30
2011,05,16,14,13,13.30
2011,05,16,14,14,13.20
2011,05,16,14,15,13.00
2011,05,16,14,16,12.90
2011,05,16,14,17,12.90
2011,05,16,14,18,12.80
2011,05,16,14,19,12.70
2011,05,16,14,20,12.60
2011,05,16,14,21,12.50
2011,05,16,14,22,12.30
2011,05,16,14,23,12.20
2011,05,16,14,24,12.20
2011,05,16,14,25,12.10
2011,05,16,14,26,12.00
2011,05,16,14,27,12.00
2011,05,16,14,28,11.90
2011,05,16,14,29,11.90
2011,05,16,14,30,11.90
2011,05,16,14,31,11.90
2011,05,16,14,32,11.90
2011,05,16,14,33,11.90
2011,05,16,14,34,11.90
2011,05,16,14,35,11.90
2011,05,16,14,36,11.90
2011,05,16,14,37,11.90
2011,05,16,14,38,11.90
2011,05,16,14,39,12.00
2011,05,16,14,40,12.10
2011,05,16,14,41,12.20
2011,05,16,14,42,12.30
2011,05,16,14,43,12.40
2011,05,16,14,44,12.50
2011,05,16,14,45,12.60
2011,05,16,14,46,12.70
2011,05,16,14,47,12.80
2011,05,16,14,48,12.80
2011,05,16,14,49,12.90
2011,05,16,14,50,12.90
2011,05,16,14,51,13.00
2011,05,16,14,52,13.10
2011,05,16,14,53,13.10
2011,05,16,14,54,13.10
2011,05,16,14,55,13.10
2011,05,16,14,56,13.20
2011,05,16,14,57,13.20
2011,05,16,14,58,13.30
2011,05,16,14,59,13.30
2011,05,16,15,00,13.30
2011,05,16,15,01,13.30
2011,05,16,15,02,13.30
2011,05,16,15,03,13.20
2011,05,16,15,04,13.20
2011,05,16,15,05,13.20
2011,05,16,15,06,13.20
2011,05,16,15,07,13.30
2011,05,16,15,08,13.30
2011,05,16,15,09,13.30
2011,05,16,15,10,13.40
2011,05,16,15,11,13.40
2011,05,16,15,12,13.50
2011,05,16,15,13,13.60
2011,05,16,15,14,13.70
2011,05,16,15,15,13.70
2011,05,16,15,16,13.70
2011,05,16,15,17,13.70
2011,05,16,15,18,13.70
2011,05,16,15,19,13.80
2011,05,16,15,20,13.90
2011,05,16,15,21,13.90
2011,05,16,15,22,14.00
2011,05,16,15,23,14.10
2011,05,16,15,24,14.20
2011,05,16,15,25,14.40
2011,05,16,15,26,14.50
2011,05,16,15,27,14.60
2011,05,16,15,28,14.60
2011,05,16,15,29,14.70
2011,05,16,15,30,14.70
2011,05,16,15,31,14.80
2011,05,16,15,32,14.80
2011,05,16,15,33,14.90
2011,05,16,15,34,14.80
2011,05,16,15,35,14.70
2011,05,16,15,36,14.50
2011,05,16,15,37,14.30
2011,05,16,15,38,14.10
2011,05,16,15,39,13.90
2011,05,16,15,40,13.70
2011,05,16,15,41,13.60
2011,05,16,15,42,13.60
2011,05,16,15,43,13.60
2011,05,16,15,44,13.60
2011,05,16,15,45,13.70
2011,05,16,15,46,13.70
2011,05,16,15,47,13.70
2011,05,16,15,48,13.70
2011,05,16,15,49,13.80
2011,05,16,15,50,13.90
2011,05,16,15,51,14.00
2011,05,16,15,52,14.20
2011,05,16,15,53,14.30
2011,05,16,15,54,14.30
2011,05,16,15,55,14.30
2011,05,16,15,56,14.10
2011,05,16,15,57,14.10
2011,05,16,15,58,14.10
2011,05,16,15,59,14.00
2011,05,16,16,00,13.90
2011,05,16,16,01,13.80
2011,05,16,16,02,13.50
2011,05,16,16,03,13.30
2011,05,16,16,04,13.20
2011,05,16,16,05,13.10
2011,05,16,16,06,13.00
2011,05,16,16,07,13.10
2011,05,16,16,08,13.10
2011,05,16,16,09,13.20
2011,05,16,16,10,13.20
2011,05,16,16,11,13.30
2011,05,16,16,12,13.30
2011,05,16,16,13,13.20
2011,05,16,16,14,13.30
2011,05,16,16,15,13.30
2011,05,16,16,16,13.30
2011,05,16,16,17,13.30
2011,05,16,16,18,13.30
2011,05,16,16,19,13.40
2011,05,16,16,20,13.40
2011,05,16,16,21,13.50
2011,05,16,16,22,13.50
2011,05,16,16,23,13.60
2011,05,16,16,24,13.60
2011,05,16,16,25,13.60
2011,05,16,16,26,13.60
2011,05,16,16,27,13.50
2011,05,16,16,28,13.40
2011,05,16,16,29,13.40
2011,05,16,16,30,13.50
2011,05,16,16,31,13.50
2011,05,16,16,32,13.60
2011,05,16,16,33,13.60
2011,05,16,16,34,13.70
2011,05,16,16,35,13.70
2011,05,16,16,36,13.70
2011,05,16,16,37,13.60
2011,05,16,16,38,13.60
2011,05,16,16,39,13.60
2011,05,16,16,40,13.70
2011,05,16,16,41,13.70
2011,05,16,16,42,13.70
2011,05,16,16,43,13.70
2011,05,16,16,44,13.70
2011,05,16,16,45,13.80
2011,05,16,16,46,13.80
2011,05,16,16,47,13.80
2011,05,16,16,48,13.80
2011,05,16,16,49,13.70
2011,05,16,16,50,13.80
2011,05,16,16,51,13.80
2011,05,16,16,52,13.90
2011,05,16,16,53,13.90
2011,05,16,16,54,14.00
2011,05,16,16,55,14.00
2011,05,16,16,56,13.90
2011,05,16,16,57,13.90
2011,05,16,16,58,13.80
2011,05,16,16,59,13.90
2011,05,16,17,00,13.90
2011,05,16,17,01,13.90
2011,05,16,17,02,13.90
2011,05,16,17,03,13.80
2011,05,16,17,04,13.70
2011,05,16,17,05,13.60
2011,05,16,17,06,13.50
2011,05,16,17,07,13.50
2011,05,16,17,08,13.50
2011,05,16,17,09,13.50
2011,05,16,17,10,13.40
2011,05,16,17,11,13.40
2011,05,16,17,12,13.40
2011,05,16,17,13,13.40
2011,05,16,17,14,13.40
2011,05,16,17,15,13.30
2011,05,16,17,16,13.20
2011,05,16,17,17,13.20
2011,05,16,17,18,13.30
2011,05,16,17,19,13.40
2011,05,16,17,20,13.50
2011,05,16,17,21,13.60
2011,05,16,17,22,13.60
2011,05,16,17,23,13.70
2011,05,16,17,24,13.70
2011,05,16,17,25,13.60
2011,05,16,17,26,13.60
2011,05,16,17,27,13.50
2011,05,16,17,28,13.40
2011,05,16,17,29,13.40
2011,05,16,17,30,13.40
2011,05,16,17,31,13.30
2011,05,16,17,32,13.30
2011,05,16,17,33,13.30
2011,05,16,17,34,13.20
2011,05,16,17,35,13.20
2011,05,16,17,36,13.20
2011,05,16,17,37,13.20
2011,05,16,17,38,13.20